Find Starlink 3374

NORAD ID: 51112 Int'l Des: 2022-005 Owner: SPXS Country: US Constellation: starlink operational
LEOCIRCULAR

リアルタイム位置

3D地球を読み込み中...

Starlink 3374について

説明を読み込み中...

次回通過

Passes for default location (London). Set your location on the main map for personalized predictions.

高度履歴

Loading altitude history...

軌道要素

1 51112U 22005J 26110.36131627 .00001543 00000-0 11499-3 0 9998
2 51112 53.2162 102.0184 0001197 79.6448 280.4679 15.08846625235172
Epoch: Apr 20, 2026 • Age: 7 hours

現在のステータス

高度 554.0 km
速度 7.58 km/s
衛星直下点 -40.81°S, 129.16°W
打ち上げ日 Jan 19, 2022
運用期間 4.2 years
タイプ internet

技術仕様

分類 Payload
質量 297.00 kg
乾燥質量 275.00 kg
総質量 297.00 kg
長さ 0.20 m
直径 2.80 m
スパン 9.00 m
形状 Box + pan
製造者 SPXS
バスタイプ Starlink
フェーズステータス In Orbit
所有者/国 SPXS/US

Most Searched